Tracking 19817 objects as of 20-Aug-2019
HD Live streaming from Space Station
objects crossing your sky now

SL-12 DEB

Track SL-12 DEB now!
10-day predictions


NORAD ID: 43607
Int'l Code: 2010-007AJ
Perigee: 299.6 km
Apogee: 17,541.7 km
Inclination: 65.4 °
Period: 313.6 minutes
Semi major axis: 15291 km
RCS: Unknown
Launch date: March 1, 2010
Source: Commonwealth of Independent States (former USSR) (CIS)
Launch site: TYURATAM MISSILE AND SPACE COMPLEX (TTMTR)

Note: This is SATELLITE DEBRIS
aabbcc
Your satellite tracking list
Your tracking list is empty




NASA's NSSDC Master Catalog

Two Line Element Set (TLE):
1 43607U 10007AJ  19230.41861387 +.00008323 +00000-0 +16421-2 0  9993
2 43607 065.3537 351.8010 5637776 013.7550 356.7556 04.59114986019320
Source of the keplerian elements: AFSPC